カタログに戻る

STARLINK-36387

運用中通信SSO
NORAD 67610·PAYLOAD·🇺🇸 United States

打ち上げ Jan 29, 2026 から Vandenberg Space Force Base

Loading…

次のパス (今後24時間)

TLE

最新Source: CelesTrak SupGP

元期: Sep 15, 2026, 04:19 UTC

1 67610C 26018X   26258.18034722 -.00013214  00000+0 -41014-3 0  2580
2 67610  97.2848 328.4495 0000887  86.1837  21.4726 15.33450396    13

AllMySatでSTARLINK-36387をリアルタイム追跡

Download on the App Store